SB KEPS @ AMSAT $ORB13087.O Orbital Elements 13087.OSCAR
HR AMSAT ORBITAL ELEMENTS FOR OSCAR SATELLITES FROM WA5QGD FORT WORTH,TX March 28, 2013 BID: ORB13087.O TO ALL RADIO AMATEURS BT
Satellite: AO-07 Catalog number: 07530 Epoch time: 13087.02020177 Element set: 641 Inclination: 101.4270 deg RA of node: 079.4882 deg Eccentricity: 0.0012392 Arg of perigee: 087.3205 deg Mean anomaly: 305.5344 deg Mean motion: 12.53595077 rev/day Decay rate: -3.4e-07 rev/day^2 Epoch rev: 75561 Checksum: 277
Satellite: FO-29 Catalog number: 24278 Epoch time: 13087.84026709 Element set: 82 Inclination: 098.5636 deg RA of node: 157.1189 deg Eccentricity: 0.0350550 Arg of perigee: 012.5046 deg Mean anomaly: 099.2054 deg Mean motion: 13.52997230 rev/day Decay rate: -8.0e-08 rev/day^2 Epoch rev: 82044 Checksum: 313
Satellite: SO-33 Catalog number: 25509 Epoch time: 13087.50827412 Element set: 462 Inclination: 031.4322 deg RA of node: 164.3890 deg Eccentricity: 0.0351636 Arg of perigee: 171.6643 deg Mean anomaly: 311.6601 deg Mean motion: 14.28982267 rev/day Decay rate: 3.43e-06 rev/day^2 Epoch rev: 75334 Checksum: 294
Satellite: RS-22 Catalog number: 27939 Epoch time: 13087.82906029 Element set: 277 Inclination: 097.7982 deg RA of node: 279.8737 deg Eccentricity: 0.0014428 Arg of perigee: 081.9383 deg Mean anomaly: 278.3458 deg Mean motion: 14.64363809 rev/day Decay rate: 3.05e-06 rev/day^2 Epoch rev: 50753 Checksum: 360
Satellite: VO-52 Catalog number: 28650 Epoch time: 13087.12552485 Element set: 380 Inclination: 097.5740 deg RA of node: 109.8815 deg Eccentricity: 0.0026380 Arg of perigee: 184.2157 deg Mean anomaly: 207.3373 deg Mean motion: 14.83657836 rev/day Decay rate: 8.91e-06 rev/day^2 Epoch rev: 42706 Checksum: 324
Satellite: HO-68 Catalog number: 36122 Epoch time: 13087.78650525 Element set: 409 Inclination: 100.3167 deg RA of node: 146.8432 deg Eccentricity: 0.0007637 Arg of perigee: 175.7353 deg Mean anomaly: 184.3821 deg Mean motion: 13.16302900 rev/day Decay rate: -4.4e-07 rev/day^2 Epoch rev: 15783 Checksum: 294
/EX SB KEPS @ AMSAT $ORB13087.D Orbital Elements 13087.MICROS
HR AMSAT ORBITAL ELEMENTS FOR THE MICROSATS FROM WA5QGD FORT WORTH,TX March 28, 2013 BID: ORB13087.D TO ALL RADIO AMATEURS BT
Satellite: UO-11 Catalog number: 14781 Epoch time: 13087.15913870 Element set: 136 Inclination: 097.9110 deg RA of node: 149.5999 deg Eccentricity: 0.0009218 Arg of perigee: 183.1729 deg Mean anomaly: 176.9426 deg Mean motion: 14.80795229 rev/day Decay rate: 4.38e-06 rev/day^2 Epoch rev: 56194 Checksum: 342
Satellite: AO-16 Catalog number: 20439 Epoch time: 13086.89510115 Element set: 708 Inclination: 098.4651 deg RA of node: 028.8364 deg Eccentricity: 0.0011553 Arg of perigee: 044.8045 deg Mean anomaly: 347.0211 deg Mean motion: 14.32150029 rev/day Decay rate: 1.16e-06 rev/day^2 Epoch rev: 21060 Checksum: 264
Satellite: LO-19 Catalog number: 20442 Epoch time: 13086.87586243 Element set: 641 Inclination: 098.4338 deg RA of node: 030.8652 deg Eccentricity: 0.0012340 Arg of perigee: 035.6820 deg Mean anomaly: 357.4456 deg Mean motion: 14.32362816 rev/day Decay rate: 1.15e-06 rev/day^2 Epoch rev: 21079 Checksum: 293
Satellite: AO-27 Catalog number: 22825 Epoch time: 13086.86920394 Element set: 345 Inclination: 098.6117 deg RA of node: 031.7848 deg Eccentricity: 0.0008959 Arg of perigee: 160.5393 deg Mean anomaly: 232.9994 deg Mean motion: 14.29543106 rev/day Decay rate: 1.08e-06 rev/day^2 Epoch rev: 1701 Checksum: 321
Satellite: IO-26 Catalog number: 22826 Epoch time: 13087.39679058 Element set: 102 Inclination: 098.6056 deg RA of node: 032.6099 deg Eccentricity: 0.0009606 Arg of perigee: 153.3478 deg Mean anomaly: 353.0731 deg Mean motion: 14.29825110 rev/day Decay rate: 1.10e-06 rev/day^2 Epoch rev: 1721 Checksum: 290
Satellite: GO-32 Catalog number: 25397 Epoch time: 13087.50553615 Element set: 32 Inclination: 098.4064 deg RA of node: 058.8112 deg Eccentricity: 0.0002001 Arg of perigee: 138.5449 deg Mean anomaly: 009.6723 deg Mean motion: 14.23328335 rev/day Decay rate: 6.2e-07 rev/day^2 Epoch rev: 76446 Checksum: 285
Satellite: NO-44 Catalog number: 26931 Epoch time: 13087.54813904 Element set: 291 Inclination: 067.0507 deg RA of node: 107.3821 deg Eccentricity: 0.0006444 Arg of perigee: 286.8303 deg Mean anomaly: 216.9199 deg Mean motion: 14.29899770 rev/day Decay rate: 2.6e-07 rev/day^2 Epoch rev: 59989 Checksum: 341
Satellite: SO-50 Catalog number: 27607 Epoch time: 13087.46178853 Element set: 26 Inclination: 064.5562 deg RA of node: 149.8728 deg Eccentricity: 0.0055305 Arg of perigee: 187.6097 deg Mean anomaly: 273.4090 deg Mean motion: 14.72827712 rev/day Decay rate: 3.58e-06 rev/day^2 Epoch rev: 55182 Checksum: 332
Satellite: CO-55 Catalog number: 27844 Epoch time: 13087.02848222 Element set: 611 Inclination: 098.7029 deg RA of node: 097.2791 deg Eccentricity: 0.0010945 Arg of perigee: 122.1941 deg Mean anomaly: 300.9521 deg Mean motion: 14.21178170 rev/day Decay rate: 1.59e-06 rev/day^2 Epoch rev: 50520 Checksum: 288
Satellite: CO-57 Catalog number: 27848 Epoch time: 13086.53667288 Element set: 556 Inclination: 098.7115 deg RA of node: 096.2639 deg Eccentricity: 0.0010733 Arg of perigee: 128.2196 deg Mean anomaly: 017.8992 deg Mean motion: 14.20908867 rev/day Decay rate: 1.39e-06 rev/day^2 Epoch rev: 50506 Checksum: 349
Satellite: AO-51 Catalog number: 28375 Epoch time: 13086.93991899 Element set: 518 Inclination: 098.1930 deg RA of node: 045.7005 deg Eccentricity: 0.0082303 Arg of perigee: 261.6469 deg Mean anomaly: 129.5463 deg Mean motion: 14.41086158 rev/day Decay rate: 1.49e-06 rev/day^2 Epoch rev: 45963 Checksum: 340
Satellite: CP3 Catalog number: 31129 Epoch time: 13087.45522523 Element set: 424 Inclination: 097.8952 deg RA of node: 084.6746 deg Eccentricity: 0.0099055 Arg of perigee: 319.2424 deg Mean anomaly: 162.3993 deg Mean motion: 14.53531830 rev/day Decay rate: 6.80e-06 rev/day^2 Epoch rev: 31526 Checksum: 310
Satellite: CO-65 Catalog number: 32785 Epoch time: 13087.18304208 Element set: 589 Inclination: 097.7599 deg RA of node: 147.0029 deg Eccentricity: 0.0014183 Arg of perigee: 207.0995 deg Mean anomaly: 218.1924 deg Mean motion: 14.83668112 rev/day Decay rate: 8.89e-06 rev/day^2 Epoch rev: 26586 Checksum: 350
Satellite: PRISM Catalog number: 33493 Epoch time: 13087.80392470 Element set: 660 Inclination: 098.2065 deg RA of node: 242.1592 deg Eccentricity: 0.0019375 Arg of perigee: 094.2436 deg Mean anomaly: 266.0987 deg Mean motion: 14.85496563 rev/day Decay rate: 2.270e-05 rev/day^2 Epoch rev: 22598 Checksum: 328
Satellite: SOHLA-1 Catalog number: 33496 Epoch time: 13087.84199350 Element set: 5 Inclination: 098.1251 deg RA of node: 204.1198 deg Eccentricity: 0.0006310 Arg of perigee: 205.3085 deg Mean anomaly: 300.8751 deg Mean motion: 14.70218389 rev/day Decay rate: 3.45e-06 rev/day^2 Epoch rev: 22406 Checksum: 276
Satellite: SO-67 Catalog number: 35870 Epoch time: 13087.80932314 Element set: 917 Inclination: 097.2004 deg RA of node: 119.4436 deg Eccentricity: 0.0000709 Arg of perigee: 183.5860 deg Mean anomaly: 229.1242 deg Mean motion: 15.26265386 rev/day Decay rate: 3.298e-05 rev/day^2 Epoch rev: 19599 Checksum: 329
Satellite: TISAT-1 Catalog number: 36799 Epoch time: 13087.90315000 Element set: 931 Inclination: 098.0363 deg RA of node: 172.1288 deg Eccentricity: 0.0013918 Arg of perigee: 333.8367 deg Mean anomaly: 026.2111 deg Mean motion: 14.82984509 rev/day Decay rate: 1.258e-05 rev/day^2 Epoch rev: 14667 Checksum: 310
Satellite: STUDSAT Catalog number: 36801 Epoch time: 13086.13629424 Element set: 605 Inclination: 098.0461 deg RA of node: 172.7907 deg Eccentricity: 0.0010703 Arg of perigee: 318.2292 deg Mean anomaly: 102.1940 deg Mean motion: 14.87290116 rev/day Decay rate: 4.378e-05 rev/day^2 Epoch rev: 14652 Checksum: 281
Satellite: FO-69 Catalog number: 37227 Epoch time: 13058.47095845 Element set: 0079 Inclination: 071.9702 deg RA of node: 108.5053 deg Eccentricity: 0.0016475 Arg of perigee: 214.8087 deg Mean anomaly: 145.2122 deg Mean motion: 14.77380366 rev/day Decay rate: 5.09e-06 rev/day^2 Epoch rev: 01270 Checksum: 308
Satellite: FO-70 Catalog number: 37380 Epoch time: 13057.30123492 Element set: 0076 Inclination: 071.9749 deg RA of node: 111.9690 deg Eccentricity: 0.0018455 Arg of perigee: 208.9506 deg Mean anomaly: 151.0634 deg Mean motion: 14.77121324 rev/day Decay rate: -4.6e-07 rev/day^2 Epoch rev: 01260 Checksum: 281
Satellite: ALMASAT-1 Catalog number: 38078 Epoch time: 13087.82707744 Element set: 126 Inclination: 069.4872 deg RA of node: 026.8922 deg Eccentricity: 0.0715861 Arg of perigee: 249.4967 deg Mean anomaly: 102.8077 deg Mean motion: 14.20539681 rev/day Decay rate: 1.2336e-04 rev/day^2 Epoch rev: 5781 Checksum: 336
Satellite: XATCOBEO Catalog number: 38082 Epoch time: 13087.80064793 Element set: 31 Inclination: 069.4857 deg RA of node: 010.0438 deg Eccentricity: 0.0625778 Arg of perigee: 240.1717 deg Mean anomaly: 113.6015 deg Mean motion: 14.43915641 rev/day Decay rate: 3.8331e-04 rev/day^2 Epoch rev: 5827 Checksum: 295
/EX SB KEPS @ AMSAT $ORB13087.W Orbital Elements 13087.WEATHER
HR AMSAT ORBITAL ELEMENTS FOR WEATHER SATELLITES FROM WA5QGD FORT WORTH,TX March 28, 2013 BID: ORB13087.W TO ALL RADIO AMATEURS BT
Satellite: NOAA-10 Catalog number: 16969 Epoch time: 13087.53898687 Element set: 294 Inclination: 098.5530 deg RA of node: 117.1068 deg Eccentricity: 0.0013489 Arg of perigee: 120.9674 deg Mean anomaly: 041.4216 deg Mean motion: 14.27622777 rev/day Decay rate: 3.3e-07 rev/day^2 Epoch rev: 38043 Checksum: 326
Satellite: NOAA-11 Catalog number: 19531 Epoch time: 13087.27735311 Element set: 296 Inclination: 098.7120 deg RA of node: 172.2113 deg Eccentricity: 0.0012287 Arg of perigee: 130.9694 deg Mean anomaly: 297.7158 deg Mean motion: 14.15006614 rev/day Decay rate: 2.4e-07 rev/day^2 Epoch rev: 26468 Checksum: 292
